Home   Weather   Buenos Aires   Past weeks
Flag for Argentina

Past Weather in Buenos Aires, Argentina — Yesterday and Last 2 Weeks

Now
81 °F

Sunny.


Feels Like: 85 °F
Forecast: 77 / 71 °F
Wind: 15 mph from East

Location: Buenos Aires Airport

Current Time: Jan 23, 2019 at 3:46:46 pm

Latest Report: Jan 23, 2019 at 3:00 pm


Visibility: 10 mi

Pressure: 29.98 "Hg

Humidity: 74%

Dew Point: 72 °F

Location of Buenos AiresLocation

Past Weather in Buenos Aires — Graph

°F

Buenos Aires Temperature Yesterday

Maximum temperature yesterday: 88 °F (at 4:00 pm)
Minimum temperature yesterday: 73 °F (at 6:00 am)
Average temperature yesterday: 81 °F

High & Low Weather Summary for the Past Weeks

 TemperatureHumidityPressure
High88 °F (Jan 22, 4:00 pm)100% (Jan 15, 6:00 pm)30.21 "Hg (Jan 15, 6:00 pm)
Low57 °F (Jan 18, 5:00 am)31% (Jan 11, 3:00 pm)29.65 "Hg (Jan 9, 3:00 am)
Average74 °F72%29.94 "Hg
* Reported Jan 8 2:00 pm — Jan 23 2:00 pm, Buenos Aires. Weather by CustomWeather, © 2019

Note: Actual official high and low records may vary slightly from our data, if they occured in-between our weather recording intervals... More about our weather records

Advertising

Buenos Aires Weather History for the Previous 24 Hours

Scroll right to see more
 ConditionsComfort  
Time TempWeatherWind HumidityBarometerVisibility
2:00 pm
Wed, Jan 23
81 °FSunny.18 mph70%29.98 "Hg10 mi
1:00 pm79 °FScattered clouds.18 mph79%29.98 "HgN/A
12:00 pm77 °FPartly sunny.20 mph79%29.98 "HgN/A
11:00 am79 °FScattered clouds.16 mph74%29.98 "HgN/A
10:00 am77 °FScattered clouds.14 mph83%29.98 "HgN/A
9:00 am73 °FScattered clouds.15 mph89%29.95 "HgN/A
8:00 am73 °FOvercast.16 mph89%29.89 "HgN/A
7:25 am77 °FBroken clouds.14 mph74%29.92 "HgN/A
7:00 am77 °FScattered clouds.14 mph74%29.92 "HgN/A
6:00 am75 °FPassing clouds.14 mph89%29.86 "HgN/A
5:00 am77 °FPartly cloudy.10 mph89%29.86 "HgN/A
4:00 am81 °FClear.10 mph79%29.86 "Hg10 mi
3:00 am81 °FClear.2 mph84%29.86 "Hg10 mi
2:00 am81 °FClear.2 mph84%29.86 "Hg10 mi
1:00 am81 °FClear.3 mph84%29.86 "Hg10 mi
12:00 am81 °FPassing clouds.3 mph84%29.83 "HgN/A
11:00 pm
Tue, Jan 22
82 °FPassing clouds.3 mph74%29.83 "HgN/A
10:00 pm82 °FClear.2 mph79%29.83 "Hg10 mi
9:00 pm82 °FPassing clouds.5 mph79%29.80 "HgN/A
8:00 pm84 °FPassing clouds.6 mph74%29.77 "HgN/A
7:00 pm86 °FSunny.10 mph66%29.77 "Hg10 mi
6:00 pm86 °FPassing clouds.8 mph70%29.77 "HgN/A
5:00 pm86 °FScattered clouds.7 mph70%29.80 "HgN/A
4:00 pm88 °FScattered clouds.10 mph59%29.80 "HgN/A
3:00 pm84 °FScattered clouds.8 mph74%29.80 "HgN/A
Weather by CustomWeather, © 2019

See weather overview